[[{"header":{"parameterUnit":"m.s-1","parameterCategory":1,"la1":30.2992,"la2":30.254,"lo1":-89.0895,"lo2":-89.0443,"dy":0.0025,"dx":0.0025,"nx":19,"ny":19,"refTime":"2026-05-02T21:00:00:Z","depth":0,"parameterNumber":2,"parameterNumberName":"U-component_of_WINDS"},"data":[0,0,0,0.0351,0.0352,0.0428,0.0428,0.0533,0.0534,0,0,0,0,0,0,0,0,0,0,0,0.033,0.0331,0.0351,0.0353,0.0427,0.0428,0.0532,0.0534,0,0,0,0,0,0,0,0,0,0,0,0.033,0.0331,0.0331,0.0353,0.0427,0.0428,0.0532,0.0473,0,0,0,0,0,0,0,0,0,0,0.0399,0.0381,0.033,0.0332,0.0353,0.0427,0.0428,0.047,0.0477,0.0501,0,0.052,0,0.0528,0.0541,0.0541,0,0,0,0.0352,0.0375,0.0394,0.0332,0.0354,0.0427,0.0394,0.0474,0.0482,0.051,0.0521,0.0525,0.053,0.0542,0.0542,0.0677,0.0677,0,0,0.0348,0.0345,0.0388,0.0399,0.0383,0.0391,0.0396,0.0478,0.0492,0.0522,0.0528,0.0532,0.0542,0.0543,0.0676,0.0677,0,0,0,0.0336,0.0342,0.0359,0.0394,0.0407,0.0393,0.0399,0.0488,0.0494,0.0529,0.0533,0.0543,0.0544,0.0675,0.0676,0.0705,0,0,0,0.0334,0.0335,0.0357,0.0356,0.0406,0.0448,0.0407,0.0488,0.0497,0.0532,0.0543,0.0545,0.0675,0.0676,0.0703,0.072,0,0,0,0.0325,0.0334,0.0345,0.0356,0.0387,0.0446,0.0457,0.049,0.05,0.0541,0.0546,0.0674,0.0676,0.0701,0.0717,0.0756,0,0,0,0.0315,0.037,0.0346,0.041,0.0387,0.0463,0.0456,0.0513,0.0552,0.0543,0.0675,0.0676,0.07,0.0715,0.0754,0.0789,0.0803,0,0,0.0383,0.0378,0.0416,0.0397,0.0476,0.0451,0.0537,0.0576,0.0584,0.0646,0.065,0.0704,0.0716,0.0756,0.0881,0.0892,0,0,0,0.0437,0.0464,0.0486,0.0521,0.0552,0.058,0.0606,0.0622,0.0675,0.0614,0.0728,0.0736,0.0759,0.0777,0.0786,0.0807,0.0684,0.0684,0.0683,0.0529,0.0535,0.06,0.0616,0.0651,0.0678,0.0709,0.0735,0.0731,0.0758,0.0777,0.0852,0.0872,0.0879,0.0901,0.0795,0.0795,0.0795,0.0796,0.0631,0.0672,0.0666,0.0726,0.0734,0.0786,0.0817,0.0813,0.0865,0.0837,0.0858,0.0828,0.0891,0.0911,0.0798,0.0797,0.0797,0.0797,0.0797,0.0694,0.0714,0.0731,0.0785,0.0827,0.0842,0.0893,0.0898,0.0904,0.0925,0.0947,0.0947,0.0949,0.0935,0.0935,0.0935,0.0935,0.0936,0.0936,0.0752,0.077,0.081,0.0848,0.0873,0.0908,0.0938,0.0964,0.0995,0.0996,0.0996,0.0992,0.0894,0.0871,0.094,0.0939,0.0939,0.0938,0.0938,0.0855,0.0833,0.0895,0.092,0.0968,0.1011,0.1017,0.1071,0.1094,0.112,0.1112,0.1038,0.1034,0.1027,0.1007,0.1108,0.1108,0.1108,0.1108,0.0909,0.0907,0.0973,0.1014,0.1054,0.1067,0.1142,0.1168,0.1192,0.1207,0.1194,0.1168,0.116,0.1161,0.1151,0.1133,0.1263,0.1264,0.1264,0.0974,0.0977,0.1037,0.1057,0.1096,0.113,0.1202,0.1252,0.1275,0.127,0.1221,0.1214,0.1173,0.1158,0.1153,0.1137,0.1104,0,0]},{"header":{"parameterUnit":"m.s-1","parameterCategory":1,"la1":30.2992,"la2":30.254,"lo1":-89.0895,"lo2":-89.0443,"dy":0.0025,"dx":0.0025,"nx":19,"ny":19,"refTime":"2026-05-02T21:00:00:Z","depth":0,"parameterNumber":3,"parameterNumberName":"V-component_of_WINDS"},"data":[0,0,0,-0.728,-0.7279,-0.7238,-0.7238,-0.7178,-0.7177,0,0,0,0,0,0,0,0,0,0,0,-0.7287,-0.7286,-0.728,-0.7279,-0.7238,-0.7238,-0.7178,-0.7177,0,0,0,0,0,0,0,0,0,0,0,-0.7287,-0.7287,-0.7286,-0.7279,-0.7238,-0.7238,-0.7178,-0.7212,0,0,0,0,0,0,0,0,0,0,-0.7253,-0.7254,-0.7287,-0.7286,-0.7279,-0.7238,-0.7238,-0.7214,-0.721,-0.7193,0,-0.7176,0,-0.7175,-0.7173,-0.7173,0,0,0,-0.7283,-0.7258,-0.7251,-0.7286,-0.7278,-0.7238,-0.7258,-0.7212,-0.7207,-0.7188,-0.7175,-0.7173,-0.7174,-0.7172,-0.7172,-0.7054,-0.7053,0,0,-0.7286,-0.7277,-0.7254,-0.7248,-0.7253,-0.7259,-0.7257,-0.7209,-0.7195,-0.7175,-0.7172,-0.7173,-0.7172,-0.7171,-0.7054,-0.7053,0,0,0,-0.7289,-0.7279,-0.7274,-0.725,-0.7243,-0.7258,-0.7255,-0.7198,-0.7196,-0.7171,-0.7173,-0.7171,-0.7171,-0.7055,-0.7054,-0.7005,0,0,0,-0.7291,-0.7281,-0.7274,-0.7269,-0.7244,-0.722,-0.7244,-0.72,-0.7195,-0.7173,-0.7171,-0.717,-0.7056,-0.7055,-0.7008,-0.6983,0,0,0,-0.7292,-0.7281,-0.7273,-0.7268,-0.725,-0.7221,-0.7217,-0.7199,-0.7195,-0.7172,-0.717,-0.7057,-0.7055,-0.7011,-0.6988,-0.6946,0,0,0,-0.729,-0.7234,-0.7272,-0.7209,-0.7251,-0.7191,-0.7217,-0.7174,-0.7149,-0.7171,-0.7056,-0.7054,-0.7012,-0.6991,-0.6949,-0.6907,-0.689,0,0,-0.7214,-0.7224,-0.7188,-0.7221,-0.7151,-0.7198,-0.7122,-0.7109,-0.7116,-0.7074,-0.7071,-0.7007,-0.6988,-0.6947,-0.6801,-0.6786,0,0,0,-0.7161,-0.7134,-0.7117,-0.7091,-0.7078,-0.7063,-0.7062,-0.7056,-0.702,-0.7092,-0.6983,-0.6972,-0.6948,-0.6928,-0.6916,-0.6895,-0.7046,-0.7046,-0.7046,-0.7041,-0.7049,-0.6988,-0.6991,-0.6965,-0.6962,-0.6942,-0.6934,-0.6954,-0.6928,-0.6914,-0.6824,-0.6801,-0.6792,-0.6769,-0.6896,-0.6896,-0.6896,-0.6895,-0.6927,-0.6888,-0.6912,-0.686,-0.687,-0.6827,-0.6821,-0.6836,-0.6797,-0.6836,-0.6816,-0.6855,-0.6776,-0.6757,-0.6892,-0.6893,-0.6893,-0.6893,-0.6894,-0.6846,-0.6829,-0.6821,-0.6781,-0.675,-0.6756,-0.6715,-0.6728,-0.6739,-0.6719,-0.6703,-0.6704,-0.6704,-0.6711,-0.6711,-0.671,-0.671,-0.671,-0.671,-0.6765,-0.6758,-0.6721,-0.6699,-0.6681,-0.666,-0.6654,-0.6637,-0.6622,-0.6634,-0.6634,-0.6653,-0.6768,-0.6794,-0.6705,-0.6706,-0.6706,-0.6707,-0.6707,-0.6642,-0.667,-0.6614,-0.6596,-0.6568,-0.6533,-0.6549,-0.6513,-0.6501,-0.648,-0.6504,-0.6588,-0.66,-0.6609,-0.6631,-0.6504,-0.6504,-0.6504,-0.6504,-0.6571,-0.6578,-0.652,-0.6489,-0.6461,-0.6468,-0.6401,-0.6395,-0.6394,-0.6387,-0.6407,-0.6439,-0.6448,-0.6454,-0.6467,-0.6487,-0.6327,-0.6327,-0.6326,-0.6494,-0.6498,-0.6439,-0.6435,-0.6413,-0.6394,-0.6331,-0.6295,-0.63,-0.6319,-0.638,-0.6388,-0.6438,-0.6455,-0.6474,-0.6494,-0.6531,0,0]}]]